Temp
7 7 7 7 7 7 7 7 7 7 7 7 7 7 7 7 7 8 8 8 8 8 8 8 8 9 8 9 9 8 9 10 11 8 9 18 22 21 20 20 21 20 19 19 19 18 18 18 18 18 18 19 19 20 20 21 21 21 21 20 20 20 21 22 23 24 24 25 25 25 25 26 27 26 25 25 24 23 23 22 21 21 22 21 21 21 20 20
7 7 7 7 7 7 7 7 7 7 7 7 7 7 7 7 7 7 8 8 8 8 8 8 8 8 8 9 9 8 9 10 9 9 14 21 22 20 20 20 20 20 19 19 19 18 18 19 18 17 19 20 19 20 21 21 21 21 20 20 20 21 21 23 24 24 25 25 25 25 25 26 26 26 26 25 23 23 23 21 21 21 21 20 20 20 20 19
7 7 7 7 7 7 7 7 7 7 7 7 7 7 7 7 7 7 7 7 8 8 8 7 8 8 8 10 9 9 10 9 12 16 20 23 22 21 21 19 20 20 19 20 20 19 19 19 18 18 19 20 20 20 21 22 21 21 21 20 21 21 22 23 23 24 25 25 25 25 25 25 26 27 26 25 23 23 23 22 21 21 21 21 20 20 20 19
7 7 7 7 7 7 7 7 7 7 7 7 7 7 7 7 7 7 7 7 7 7 7 7 8 7 8 9 10 10 10 12 18 22 22 22 22 23 21 20 20 20 20 20 20 19 19 19 18 19 20 20 20 20 21 22 22 21 21 21 22 22 22 23 24 24 25 25 25 25 25 25 26 27 25 25 24 24 23 22 22 22 21 21 20 20 20 20
7 7 6 7 7 7 7 7 7 7 7 7 7 7 7 7 7 7 7 7 7 7 7 7 8 8 9 10 11 11 12 17 22 21 22 23 23 23 21 20 19 20 19 19 19 19 19 19 19 19 20 20 20 21 21 21 22 21 21 22 22 22 22 23 24 25 25 25 25 25 25 26 27 26 25 24 26 26 25 24 23 21 21 20 20 20 20 20
6 6 6 7 7 7 7 7 7 7 7 7 7 7 7 7 7 7 7 7 7 7 7 7 7 8 9 11 11 11 15 20 21 21 23 22 22 23 21 20 19 19 19 19 19 18 19 19 19 19 20 20 20 20 21 21 22 22 22 23 22 22 22 23 24 25 25 24 25 25 25 26 26 26 24 24 27 27 24 24 22 21 21 21 20 20 20 20
6 6 6 6 6 6 7 7 7 7 7 7 7 7 7 7 7 7 7 7 7 7 7 7 7 8 10 12 12 12 14 18 21 22 22 22 22 23 21 20 19 19 18 18 19 18 19 19 19 20 20 20 20 20 21 21 22 22 22 23 23 23 22 23 24 24 24 24 25 25 25 25 25 26 25 24 27 25 23 23 22 21 21 21 20 20 20 20
6 6 6 6 6 6 6 7 7 6 7 7 7 7 7 7 7 7 7 7 7 7 7 7 7 8 10 11 13 14 15 18 21 22 21 21 22 22 22 20 19 19 18 18 19 19 19 19 19 20 20 20 20 21 22 22 21 21 22 22 23 23 23 24 24 24 24 24 24 24 24 25 25 25 25 25 25 23 22 22 21 21 21 20 20 20 20 20
6 6 6 6 6 6 6 6 7 7 7 7 7 7 7 7 7 7 7 7 7 7 7 7 7 8 10 10 12 16 18 20 21 21 21 21 21 22 22 20 19 18 18 18 19 19 19 19 20 21 20 21 21 21 22 21 21 22 22 23 23 23 24 24 24 24 24 24 24 24 25 26 25 25 26 25 23 22 22 21 21 21 20 20 20 20 20 20
6 6 6 6 6 6 6 6 7 7 7 8 9 9 9 8 8 8 7 7 7 7 7 7 7 9 10 10 13 17 20 21 20 21 20 20 21 21 20 20 20 18 18 18 18 19 20 20 20 21 21 21 22 21 22 22 22 23 23 23 23 23 23 24 24 25 25 24 25 25 25 26 25 25 26 25 22 22 22 21 20 20 20 20 20 20 20 19
6 6 6 6 6 6 6 6 6 7 8 9 11 11 10 10 9 9 8 8 7 7 7 7 7 9 9 11 14 17 20 20 20 20 20 20 20 20 20 20 19 19 18 18 18 19 20 20 21 21 21 21 22 22 22 22 23 24 23 23 23 23 23 23 24 24 24 25 26 25 25 26 25 26 27 25 22 22 21 20 20 20 20 20 20 20 18 17
6 6 6 6 6 6 6 6 6 7 8 10 11 11 11 11 11 10 10 9 8 7 7 7 7 8 8 11 14 17 20 20 20 20 19 20 19 20 20 19 19 19 19 19 18 19 20 20 21 21 21 21 21 21 23 23 23 24 23 23 23 23 23 24 24 25 24 25 27 26 25 25 26 27 28 24 22 22 21 20 20 20 20 20 20 20 18 16
6 6 6 6 6 6 6 6 6 6 8 10 11 11 11 11 11 11 11 11 9 7 7 7 7 7 9 12 16 19 21 20 20 19 19 20 19 20 20 19 20 19 20 20 19 20 20 21 21 21 21 21 21 22 23 23 23 23 23 23 23 23 23 24 24 25 25 25 27 25 23 24 26 27 27 23 22 22 21 20 20 20 20 20 20 20 18 16
6 6 6 6 6 6 6 6 6 6 7 10 11 11 12 12 12 12 11 11 9 7 7 7 7 8 9 14 18 20 20 19 18 19 20 20 19 20 20 19 20 20 20 20 21 21 20 20 21 21 21 21 21 22 22 22 23 23 23 22 21 21 22 24 24 24 25 25 26 25 23 24 27 27 26 23 22 21 21 21 21 20 20 20 20 20 18 17
6 6 6 6 6 6 6 6 6 6 7 10 12 12 13 13 13 12 12 11 9 7 7 7 7 8 10 13 18 19 19 18 18 19 20 20 19 20 21 20 20 20 20 20 21 21 21 21 21 21 21 21 21 21 21 22 22 22 22 21 21 20 22 24 24 24 26 26 25 25 23 23 26 27 25 23 22 22 21 21 20 20 20 20 20 20 18 17
6 6 6 6 7 7 6 6 6 6 7 9 12 13 13 13 13 12 11 10 9 8 8 8 8 9 12 16 18 19 19 18 19 21 21 20 20 21 22 21 20 20 20 20 20 21 21 21 21 21 21 22 22 21 21 21 21 21 20 20 21 20 21 22 23 24 25 25 25 25 24 24 26 27 25 22 22 22 21 21 20 20 20 20 20 19 18 17
6 6 7 7 8 7 6 6 6 7 8 9 12 14 13 13 13 12 10 9 9 8 8 9 9 9 14 18 19 20 20 20 21 21 21 21 21 22 22 20 20 20 19 20 20 20 21 21 21 21 21 21 21 21 21 20 20 20 19 20 20 20 21 21 23 24 24 25 25 25 24 25 26 28 25 22 22 22 21 21 20 20 20 20 20 18 17 17
6 7 7 7 7 7 6 7 7 8 9 9 11 13 13 11 11 11 9 9 9 9 9 10 9 12 16 18 19 20 20 21 21 21 22 21 21 22 21 20 21 20 20 20 20 20 21 21 21 21 21 21 20 21 20 19 20 20 20 20 20 20 21 21 22 23 24 24 24 24 24 24 25 26 24 22 22 22 21 21 20 20 20 20 19 18 17 17
6 7 7 7 7 6 6 7 9 9 9 10 12 13 12 11 10 10 9 9 10 12 14 12 12 17 19 19 19 19 20 21 21 21 22 21 21 20 21 21 21 21 20 20 20 20 21 21 20 20 20 20 20 20 20 20 20 20 20 20 20 20 20 21 21 23 24 24 24 24 24 24 25 25 24 23 22 22 22 21 20 20 20 20 19 18 18 17
6 6 6 6 6 6 7 8 9 9 8 10 11 12 13 12 12 12 10 9 11 14 17 15 14 17 18 18 19 19 20 21 21 21 21 21 20 19 20 20 21 21 20 20 20 20 20 20 20 19 19 19 20 20 20 20 20 20 20 20 20 20 20 21 21 22 24 23 23 24 24 24 24 25 24 23 22 22 22 20 20 19 19 19 18 18 18 18
7 7 6 6 5 6 7 9 9 9 8 9 10 11 13 14 13 13 12 12 12 12 14 15 15 16 17 18 19 19 20 20 20 21 21 21 21 19 20 20 20 20 20 20 20 20 20 20 19 19 19 20 21 20 20 20 20 20 20 20 19 19 20 21 21 22 23 22 22 24 23 23 24 24 23 23 22 22 22 21 19 19 19 19 18 18 18 18
7 7 6 6 5 6 8 9 9 9 9 9 9 10 11 13 14 14 13 13 13 13 13 14 14 15 16 17 18 19 18 18 19 20 21 22 21 20 20 20 20 19 19 20 20 19 19 19 19 19 20 20 20 19 19 19 19 19 19 19 19 19 20 21 22 23 23 22 23 24 23 23 24 23 22 23 23 22 21 21 20 19 19 18 18 18 18 18
7 6 6 6 5 6 8 9 9 9 9 9 8 8 11 13 14 14 13 13 14 15 14 14 14 15 16 16 17 18 17 17 18 20 21 21 21 21 21 20 19 20 20 19 19 19 18 19 19 20 19 20 19 19 18 18 19 18 19 19 19 19 20 20 22 23 23 23 23 23 22 22 22 22 21 21 22 22 21 21 20 19 19 18 18 19 19 18
6 6 5 5 5 6 8 9 9 9 9 9 8 11 13 13 13 13 13 13 14 15 16 16 15 15 17 18 18 18 17 18 18 19 21 21 21 21 20 20 19 19 19 19 19 19 18 20 21 20 19 19 20 19 19 18 18 18 18 18 19 20 20 20 21 22 22 22 22 22 22 22 22 22 21 19 20 22 21 20 20 18 19 19 19 19 19 17
6 5 5 5 5 6 9 10 8 9 9 9 11 14 14 13 13 13 13 14 15 16 17 17 17 17 18 19 18 18 18 18 19 20 21 21 21 20 20 20 20 19 19 19 19 18 19 20 21 20 20 19 19 19 19 18 19 18 19 19 20 21 20 20 20 21 21 21 22 22 21 22 22 21 20 19 19 20 20 19 19 18 18 19 19 19 18 17
5 5 5 5 5 6 10 10 8 9 10 10 13 14 14 14 14 13 13 14 15 17 18 18 17 18 20 19 18 18 18 18 19 20 21 22 22 21 21 20 20 20 19 19 19 19 19 20 21 21 20 19 19 19 19 19 18 19 20 20 20 20 20 20 20 20 21 21 21 22 21 21 21 21 19 17 18 18 18 18 18 18 18 19 19 19 17 16
5 5 5 5 5 5 8 9 8 8 11 13 14 14 15 15 14 14 14 14 15 18 18 18 18 20 21 19 18 20 20 20 20 20 21 22 22 22 21 20 21 20 20 20 19 19 20 21 20 20 20 19 19 19 19 19 19 19 21 21 21 21 20 20 21 21 21 21 21 21 21 20 21 21 18 16 17 17 17 18 18 18 18 19 19 18 17 16
5 5 5 5 5 5 5 6 5 7 12 14 14 14 16 15 14 15 14 15 17 19 20 19 19 21 20 19 19 21 21 21 20 20 21 22 22 22 21 20 21 21 21 21 19 19 21 21 21 20 20 19 19 20 20 19 20 21 22 22 21 21 21 21 21 21 21 21 21 21 21 20 21 20 18 17 18 18 18 18 18 18 18 18 19 18 17 16
5 5 5 5 5 6 6 5 5 8 13 14 13 15 16 15 15 16 14 15 18 20 21 21 21 21 20 19 19 20 21 22 21 21 21 22 22 22 21 20 21 21 21 21 19 20 21 21 22 21 20 20 21 21 20 20 21 22 22 21 22 21 21 21 21 21 21 20 20 21 21 21 21 20 19 18 18 18 18 18 18 18 18 18 18 18 17 16
6 5 5 5 5 7 7 6 8 12 13 13 14 15 15 15 16 15 14 16 18 20 21 21 21 21 19 18 19 20 20 22 22 21 21 21 22 22 22 21 21 20 20 20 20 20 21 21 22 21 21 21 22 22 21 20 21 22 22 21 21 21 21 21 21 21 21 20 21 21 21 21 21 20 20 19 18 18 17 17 18 18 18 18 18 17 16 16
6 6 5 5 5 6 6 8 11 13 12 12 14 15 16 16 15 14 15 17 18 19 20 19 19 20 19 19 19 20 20 21 22 21 21 21 21 21 21 21 21 20 20 20 20 20 20 21 21 22 23 22 22 22 21 21 21 21 22 22 21 21 21 21 20 20 20 20 21 21 21 21 21 21 20 19 18 18 18 18 17 17 18 17 17 16 16 16
6 7 6 6 5 5 7 11 13 12 12 12 13 14 16 15 14 14 16 17 18 18 18 18 18 18 18 19 20 20 20 21 22 21 20 21 20 20 20 20 20 19 19 19 19 20 20 21 21 22 23 23 22 21 21 21 21 21 21 21 21 20 20 20 20 20 20 20 20 20 20 21 21 20 19 18 17 17 18 18 18 18 17 17 16 16 16 15
8 9 9 9 8 7 9 12 12 11 12 12 13 15 15 14 14 15 15 16 17 17 18 18 18 18 18 20 20 21 21 21 21 21 21 20 20 19 20 20 20 20 19 18 19 20 20 20 21 22 23 23 23 21 21 21 21 21 21 21 21 20 19 19 19 19 20 21 20 19 20 21 20 20 18 17 17 17 18 18 18 18 17 16 16 16 16 15
9 10 11 11 11 11 12 12 11 11 11 12 14 14 14 14 14 14 14 15 17 17 17 17 17 18 19 20 20 21 21 20 21 21 20 20 19 19 19 19 19 20 20 19 18 19 20 20 21 22 23 23 23 22 23 23 22 21 22 22 21 20 20 20 20 20 20 21 20 20 20 20 20 19 17 17 17 17 18 18 18 17 17 17 16 16 16 16
11 11 12 12 13 14 13 12 10 10 10 13 14 13 13 14 14 14 14 15 16 16 16 17 17 18 19 19 20 20 20 20 20 20 20 19 19 19 19 19 19 20 20 19 18 19 19 20 22 23 22 23 23 23 23 24 22 20 21 21 21 21 21 20 19 19 20 20 20 19 19 18 18 18 17 17 17 17 18 18 18 18 17 17 16 16 16 16
12 12 12 13 14 14 14 12 11 10 11 13 14 13 13 14 14 14 15 15 15 15 15 16 17 17 18 18 19 19 20 20 19 19 20 19 19 19 19 20 20 20 21 20 19 19 19 20 22 22 22 23 24 24 24 24 23 20 20 21 21 21 22 20 19 18 18 20 19 17 18 18 18 19 17 16 16 16 17 17 17 17 17 17 16 16 16 16
12 11 11 12 14 14 14 13 11 10 12 14 14 13 13 13 14 14 15 15 15 15 15 15 16 17 17 17 18 18 19 19 18 18 19 19 19 19 19 20 20 20 21 21 20 19 19 20 21 21 22 23 23 23 24 23 23 22 21 21 20 20 21 21 20 19 19 20 19 17 17 18 18 18 17 16 16 15 16 16 17 17 16 16 16 16 15 15
9 9 10 13 14 14 14 13 12 11 13 14 13 12 12 13 14 14 15 15 14 15 15 14 16 17 17 16 17 18 19 19 18 18 19 18 19 19 19 20 20 20 20 21 21 20 19 20 21 21 21 23 22 22 23 22 22 22 22 22 21 20 21 20 20 20 19 19 19 17 17 17 17 17 16 16 15 15 16 16 16 16 16 15 15 15 15 15
7 9 13 14 14 14 14 13 12 13 14 13 12 12 12 13 14 15 15 15 14 15 14 15 16 17 16 16 17 18 18 18 18 17 18 18 18 19 18 19 20 19 19 20 20 20 19 19 21 21 21 21 22 21 21 21 22 22 22 21 21 20 20 20 20 20 20 19 18 18 18 18 17 15 15 15 15 15 16 16 16 16 15 15 15 15 15 15
8 12 14 14 14 14 13 13 13 13 13 12 12 13 13 13 14 15 15 15 15 15 15 15 16 16 16 17 17 18 18 18 18 17 18 18 18 18 18 19 20 20 19 20 20 19 19 18 19 21 21 20 21 21 20 21 21 22 22 21 20 20 20 20 19 19 19 20 19 18 18 17 16 15 15 15 15 15 15 16 16 16 15 15 15 14 14 14
9 13 14 14 14 14 13 13 13 12 12 12 11 12 13 13 13 14 15 15 15 16 16 16 16 15 16 16 17 18 18 18 17 17 17 17 18 19 19 19 20 20 20 20 20 19 19 18 19 20 21 20 20 20 19 19 20 20 20 20 19 19 20 20 20 18 19 19 19 19 19 17 15 15 15 14 15 15 15 15 16 15 15 14 14 14 14 14
11 13 13 13 14 13 13 12 12 11 12 12 12 12 13 13 13 13 15 15 15 16 16 16 16 16 16 16 17 18 19 18 17 17 17 18 18 19 20 19 19 20 20 19 19 19 19 18 19 19 19 18 19 19 19 19 18 19 19 17 17 19 20 21 21 19 19 18 17 18 19 17 15 15 15 14 14 15 15 15 14 14 14 14 14 14 14 14
13 13 14 13 13 13 13 12 11 11 12 12 12 12 13 13 13 13 14 15 15 16 16 16 16 16 17 17 18 18 19 18 17 18 18 18 18 18 19 19 19 19 19 18 18 19 19 18 18 19 18 18 19 19 19 19 18 19 19 17 17 18 18 19 20 19 19 19 18 19 18 16 15 15 14 14 14 14 14 14 14 14 14 13 13 14 14 13
12 12 13 14 14 14 13 12 12 11 12 12 11 12 12 12 12 13 13 14 15 15 15 16 16 17 17 18 18 18 19 18 18 18 18 18 18 18 18 19 19 19 19 18 18 19 18 17 18 18 17 17 18 19 20 19 19 19 18 16 17 17 17 18 18 18 19 18 18 20 18 15 15 15 14 14 14 14 14 14 14 14 13 13 13 13 13 13
11 11 13 13 14 14 13 11 12 11 11 11 10 11 12 11 12 13 13 13 14 15 15 15 16 16 16 17 17 17 18 18 18 18 17 18 18 17 17 18 19 18 18 18 19 19 18 17 17 18 17 17 17 18 18 18 17 17 17 16 17 17 18 19 18 20 20 17 17 19 17 14 14 14 14 14 14 14 14 13 13 13 12 12 12 12 12 12
13 12 12 13 13 13 12 11 11 11 11 10 10 11 11 11 12 13 13 13 14 14 15 15 16 16 16 16 16 16 16 17 17 17 17 17 17 17 16 17 18 18 18 18 18 18 17 15 15 17 17 16 16 17 17 16 17 17 17 17 16 16 18 19 19 20 18 16 17 17 15 15 15 14 14 14 14 14 13 13 12 12 11 11 11 11 11 11
13 12 12 13 13 12 12 11 11 11 11 10 11 11 11 10 11 12 13 13 14 13 14 15 15 15 15 15 16 16 15 16 16 16 16 16 17 17 16 17 17 18 18 17 17 17 17 15 14 14 14 14 15 15 16 16 16 15 15 16 16 16 18 19 19 17 16 17 17 15 14 15 15 14 14 14 14 13 13 12 11 11 10 10 10 10 10 10
12 12 11 12 12 12 12 12 12 12 11 11 11 11 10 10 11 11 12 13 13 13 14 14 14 14 14 14 15 15 15 15 16 15 15 15 16 17 17 17 17 17 17 17 16 16 16 14 14 14 14 14 14 15 15 14 14 13 13 14 14 14 16 18 15 13 14 18 17 15 14 14 13 13 13 13 12 12 11 10 10 10 10 10 10 10 10 10
11 12 11 10 12 12 11 11 12 12 11 11 11 11 10 10 11 11 11 12 13 13 14 14 13 13 13 14 14 14 14 15 15 14 14 15 15 16 17 17 16 16 17 17 16 15 15 13 13 14 14 13 14 14 14 14 13 13 12 12 13 13 13 14 12 11 13 15 15 13 13 12 10 11 11 11 11 10 10 9 9 9 9 9 9 9 9 9
11 12 11 11 12 12 12 12 12 12 12 11 11 11 10 11 11 11 11 11 12 13 13 13 13 13 13 13 14 14 13 14 14 14 14 14 15 16 16 16 16 16 17 16 15 15 15 13 12 13 14 13 13 13 14 14 14 14 13 12 12 13 13 12 12 12 13 13 12 12 12 10 9 9 10 10 10 10 9 9 9 8 9 9 9 8 8 8
10 11 11 12 12 11 11 12 12 11 12 11 11 11 10 11 12 11 12 12 12 12 13 13 13 13 13 14 14 14 14 14 14 14 14 14 15 15 15 15 16 17 16 15 15 15 15 13 12 13 14 13 12 12 13 13 15 15 13 12 11 12 12 12 12 12 12 13 12 13 12 10 9 9 9 9 9 8 8 8 8 8 8 8 8 8 8 8
10 10 10 11 12 10 10 11 11 11 11 11 11 11 11 11 11 11 11 13 13 13 13 13 13 13 14 14 14 15 14 14 14 14 14 14 14 14 15 15 16 16 16 15 14 14 14 14 13 14 13 12 12 11 11 13 15 15 12 10 10 11 12 12 11 11 11 12 13 13 11 9 8 9 8 7 7 7 6 6 7 7 7 7 7 7 7 7
Height
802 800 799 798 796 795 794 792 791 790 789 788 787 786 785 785 784 783 782 780 780 779 778 777 776 775 774 773 771 770 768 766 763 764 762 750 746 748 750 750 750 751 753 754 755 757 758 760 761 762 763 764 766 766 766 767 768 772 780 788 790 787 780 770 766 764 761 757 752 749 749 752 750 744 738 736 739 740 743 744 743 740 738 739 741 745 748 752
802 801 799 798 797 795 793 792 790 789 788 787 786 786 785 784 783 783 781 780 779 778 777 776 775 774 773 771 770 769 767 765 762 759 753 745 745 746 747 749 750 750 752 753 754 756 758 759 760 762 763 764 765 765 766 766 767 773 780 787 785 779 770 762 761 759 757 757 753 750 750 751 750 746 740 744 749 745 746 749 747 746 745 743 744 747 750 752
802 801 799 798 797 795 793 791 790 789 788 787 786 785 785 784 783 782 781 780 778 777 776 775 774 773 772 771 770 769 767 764 760 752 746 744 745 744 746 748 749 750 752 753 753 755 757 758 759 761 763 765 765 765 766 765 767 770 776 785 777 768 764 759 759 758 755 755 753 751 750 750 747 743 742 746 750 749 749 749 748 750 748 746 746 747 750 751
802 801 799 798 796 795 793 791 790 789 788 787 786 786 785 784 783 782 781 780 778 777 776 774 773 772 771 770 770 769 767 763 754 745 744 744 744 743 744 746 748 750 752 753 753 755 756 758 759 760 763 766 766 765 767 765 766 768 772 777 768 763 764 757 757 756 753 753 752 751 750 749 743 740 743 746 751 751 748 743 741 745 746 746 747 748 750 751
801 800 799 798 796 794 792 791 790 789 788 787 786 785 784 784 783 782 781 780 778 777 775 774 773 771 771 770 770 768 768 763 750 743 744 743 743 743 743 745 748 750 751 753 754 755 757 758 759 761 763 766 766 766 766 762 763 768 769 766 762 763 763 755 754 755 751 751 750 751 751 745 740 741 744 745 747 746 740 736 736 738 741 742 744 747 749 751
800 799 798 797 796 794 792 791 790 788 787 786 786 785 784 783 782 781 780 779 778 777 775 774 772 771 770 769 770 768 769 763 747 743 744 743 743 742 743 745 748 750 751 753 753 755 757 758 760 763 764 765 767 767 766 762 762 769 767 761 760 761 761 755 753 752 750 752 751 749 747 742 743 745 744 743 740 736 733 731 735 738 739 739 741 744 747 749
799 798 798 796 795 794 792 791 789 788 787 786 785 784 784 783 782 781 780 779 778 776 775 774 772 771 770 770 769 769 771 761 744 744 744 743 744 742 744 746 748 750 751 752 753 755 756 758 761 762 764 766 767 766 764 762 762 768 767 760 758 758 757 754 752 750 749 752 749 746 746 744 747 746 744 743 736 732 733 732 735 739 741 742 743 745 746 747
799 798 797 796 795 794 793 791 789 788 787 785 785 784 783 782 781 780 779 778 777 776 775 773 772 771 770 770 769 769 768 755 743 744 744 743 744 743 744 746 748 749 750 752 752 754 756 759 760 760 765 766 765 764 762 763 764 766 765 759 756 755 753 750 750 750 749 749 745 745 748 744 742 744 744 741 736 734 733 734 737 741 744 746 746 746 746 747
798 797 796 796 795 794 792 791 789 788 786 785 784 783 782 781 780 779 778 777 776 776 774 773 773 771 771 771 771 768 758 747 744 744 742 742 743 744 745 745 748 749 750 752 752 754 755 758 759 758 763 763 762 763 761 766 767 761 760 758 756 754 751 749 750 749 747 746 744 746 747 740 737 742 743 739 738 737 733 736 740 743 746 747 748 747 747 749
798 797 796 795 794 794 792 791 790 788 786 785 783 782 781 780 779 778 777 777 776 776 774 774 772 772 772 770 772 767 750 743 745 743 742 743 743 745 745 746 747 748 750 752 752 753 752 754 755 755 759 760 760 760 760 764 762 755 756 756 755 754 750 749 749 746 746 744 743 747 744 737 736 741 743 739 737 737 736 741 743 744 747 747 747 748 751 754
798 796 796 795 794 793 792 791 789 788 786 784 782 781 780 779 778 777 776 776 775 775 774 773 772 772 772 770 772 764 747 744 745 743 744 744 744 746 747 747 747 748 749 751 751 750 750 752 753 754 759 760 759 759 757 756 755 752 754 755 753 752 750 749 749 746 746 744 739 742 742 737 737 740 739 736 736 736 739 744 745 745 747 747 748 750 754 757
798 796 795 794 793 792 791 790 788 787 785 783 782 779 779 778 777 776 775 775 774 774 774 773 773 772 772 772 767 755 744 745 745 744 745 744 746 747 747 748 748 748 748 749 749 748 750 752 752 756 758 758 760 761 756 751 752 752 753 757 754 751 750 747 746 744 744 743 734 738 747 744 741 738 733 733 735 737 740 744 746 747 748 748 750 752 756 758
798 796 794 793 792 791 790 789 787 786 784 782 780 778 778 776 775 775 773 773 773 773 773 773 773 772 774 768 753 744 743 745 744 744 744 744 745 745 746 747 747 749 748 748 747 747 751 751 752 754 754 757 761 758 752 749 752 752 753 757 758 757 753 745 743 742 742 741 732 740 756 751 740 735 731 734 736 739 744 746 746 748 748 750 751 753 757 758
797 795 794 792 791 790 789 788 786 784 783 781 779 777 776 774 774 773 772 772 771 773 773 773 773 773 774 760 742 741 743 742 742 741 742 743 744 744 744 745 746 747 748 748 747 748 750 751 753 754 754 756 756 753 753 754 754 754 756 758 763 767 757 744 743 743 742 739 731 741 758 752 739 733 731 735 735 738 745 747 747 748 749 750 751 752 756 758
796 795 793 791 790 789 788 786 785 783 781 779 777 776 774 773 771 770 770 770 770 772 772 774 773 773 773 757 740 740 740 739 739 737 739 741 742 743 742 743 745 745 747 748 748 749 750 751 754 756 755 752 753 758 761 760 756 758 763 764 766 769 760 747 743 743 742 739 733 742 755 751 740 732 730 734 735 738 743 746 747 748 749 750 750 753 756 759
795 794 792 790 789 787 786 785 784 782 780 778 776 774 772 770 769 768 768 768 770 771 772 774 772 773 771 753 738 737 737 737 735 735 737 738 739 740 740 742 743 744 746 747 747 749 750 752 753 754 754 753 756 761 764 766 763 763 769 769 767 768 765 755 745 740 740 739 737 742 749 748 739 731 730 735 736 738 743 746 747 747 748 749 751 754 757 760
794 792 791 789 787 786 785 784 782 780 778 777 774 772 771 768 766 766 766 768 770 770 772 772 772 773 762 743 737 737 735 734 734 734 735 736 737 737 739 742 743 744 746 746 748 749 750 752 753 753 754 756 757 761 770 776 772 770 772 771 769 767 766 760 750 741 739 741 741 741 745 744 737 729 731 735 735 739 744 745 747 747 748 749 751 755 758 759
792 791 789 788 786 785 784 782 780 778 777 775 773 771 769 767 766 765 766 768 769 771 772 771 773 771 753 738 738 736 734 734 734 734 735 735 737 737 739 741 742 744 746 748 749 749 751 752 753 756 757 758 759 763 773 776 772 772 772 770 770 767 764 762 756 746 740 743 744 744 746 742 736 731 733 736 736 739 742 743 746 747 747 748 751 756 758 759
791 789 788 787 785 784 783 781 779 777 775 773 771 770 768 767 767 766 767 768 769 767 765 765 766 759 744 736 737 735 733 733 732 732 733 734 736 738 739 740 742 745 749 752 751 749 750 753 757 760 760 761 762 762 766 767 766 768 769 771 772 770 765 760 756 747 742 746 745 745 745 740 735 731 732 736 736 739 741 743 746 747 746 748 752 756 757 758
789 788 787 786 784 783 781 779 778 776 774 772 771 769 767 768 767 767 768 768 765 758 754 755 756 749 740 736 735 735 734 732 732 731 731 733 734 738 740 741 743 746 750 753 753 749 750 757 761 761 761 761 761 760 760 762 764 765 767 770 771 771 766 756 753 746 741 748 746 741 742 739 735 730 729 734 736 739 742 746 747 746 746 748 752 755 755 757
788 787 785 784 783 782 780 778 776 775 774 772 771 770 769 771 771 770 768 762 756 753 751 750 750 746 738 734 734 737 737 734 732 729 731 732 733 739 742 743 748 752 751 751 752 750 752 759 759 757 758 756 755 757 759 762 764 766 768 769 770 771 765 754 752 746 741 750 748 739 742 739 731 727 728 732 736 738 740 743 745 744 746 749 751 754 754 755
787 785 784 783 782 780 778 776 775 774 773 772 772 772 771 771 772 771 769 763 752 747 749 746 746 743 733 732 735 738 743 741 735 728 728 731 733 738 742 743 750 753 751 751 754 757 759 760 755 753 754 753 755 758 762 764 764 767 769 771 771 768 763 753 748 743 740 747 745 739 743 737 726 725 728 729 730 732 732 733 737 740 745 749 751 752 752 754
785 784 783 782 780 779 777 775 774 773 773 773 773 772 770 769 769 768 770 768 753 740 742 741 742 740 731 731 733 737 743 743 739 731 726 730 733 735 739 744 749 751 751 754 757 763 764 756 749 750 752 754 757 759 763 766 766 769 770 773 772 766 766 761 750 744 741 744 743 741 743 737 727 726 728 730 727 726 730 731 733 736 739 743 744 744 746 750
784 783 782 780 779 777 775 774 772 772 772 771 770 768 768 767 767 767 767 766 753 736 733 731 732 734 726 724 728 734 738 735 735 730 724 728 733 734 738 742 748 751 751 752 755 761 759 748 744 748 753 755 757 758 763 767 768 769 768 770 770 763 764 762 754 749 745 745 744 744 745 735 728 732 732 733 730 726 730 734 738 741 739 739 741 742 744 747
783 782 781 779 778 775 773 773 771 771 770 769 767 765 766 766 765 766 765 765 755 737 729 726 727 725 718 721 726 727 732 731 727 724 721 724 729 734 737 738 744 751 751 751 755 759 753 744 743 747 752 755 757 758 760 764 767 768 763 761 761 757 757 757 756 756 754 751 744 745 756 746 732 736 738 737 736 734 734 737 741 744 743 742 743 744 746 750
782 782 780 779 778 774 772 771 770 771 768 767 765 764 765 764 763 764 765 769 759 737 728 728 727 721 715 721 723 724 734 729 718 718 720 721 723 728 736 738 740 746 748 748 753 754 746 741 741 745 749 753 758 758 756 759 767 768 756 749 751 752 755 756 756 758 758 755 745 744 762 758 739 740 747 746 743 742 742 742 743 743 742 742 742 743 746 750
781 780 779 778 777 775 773 771 771 770 767 765 764 763 763 761 763 761 765 774 761 734 727 728 726 718 713 718 718 724 733 723 714 717 716 719 721 723 735 740 739 741 741 746 754 748 739 740 743 745 748 753 758 756 750 752 763 762 746 742 747 749 753 754 753 755 753 751 747 744 755 759 746 744 752 752 748 748 748 747 746 743 742 741 741 743 746 749
780 778 778 778 776 777 775 772 772 769 766 764 763 762 761 760 762 760 769 777 752 725 723 724 719 714 712 716 716 717 719 714 717 718 711 716 720 722 734 738 737 738 734 743 755 745 735 740 742 743 750 754 751 745 742 748 755 747 735 739 743 743 748 749 750 755 753 754 753 746 749 756 752 747 752 754 753 754 752 749 747 745 743 743 743 745 747 749
778 777 777 777 775 775 774 772 771 767 764 763 762 761 759 760 759 762 777 774 741 720 718 717 716 715 716 720 719 715 712 711 715 715 711 717 719 720 731 732 731 736 734 738 746 740 734 734 734 740 747 748 740 734 737 745 745 734 732 739 739 741 746 746 749 752 754 762 759 746 745 752 753 750 752 757 757 757 754 750 748 746 746 746 746 748 749 751
776 775 776 775 774 772 771 770 767 764 763 762 761 760 757 759 761 771 782 765 737 725 718 717 721 721 722 726 724 719 716 713 711 712 715 718 718 719 724 726 728 736 738 738 739 736 733 730 730 734 737 734 731 729 732 735 733 728 734 740 741 744 744 746 751 750 757 766 754 741 742 747 754 753 749 752 754 752 752 751 750 748 747 747 747 750 751 751
774 773 774 773 772 771 771 768 763 762 763 761 761 759 758 762 769 779 773 748 735 732 724 725 727 724 726 730 727 722 719 717 712 715 720 721 724 726 727 730 733 739 744 743 741 737 734 734 732 727 724 725 727 728 728 728 729 732 737 740 745 749 747 751 756 755 767 767 746 740 744 743 752 752 745 747 748 746 745 744 746 746 746 747 748 751 752 752
772 770 770 770 769 770 768 765 762 763 762 761 761 759 760 769 776 775 759 742 741 741 735 735 732 729 728 726 725 722 720 719 714 716 722 724 729 731 730 734 737 745 753 750 745 741 735 733 730 724 719 720 727 733 731 729 732 737 741 743 751 759 760 763 764 764 768 759 744 747 746 742 749 749 747 749 746 744 741 737 738 741 744 748 749 750 751 753
769 767 766 765 765 765 763 762 762 763 761 761 762 761 765 774 773 765 757 751 748 743 740 738 734 732 728 723 722 718 718 721 716 716 720 722 730 732 729 731 732 738 748 750 750 746 740 734 727 726 721 715 722 733 735 734 735 737 740 744 753 765 773 776 773 772 766 752 747 749 743 745 749 746 748 750 743 741 740 738 738 739 743 747 748 749 751 754
765 764 762 762 762 760 760 761 762 762 761 761 762 764 770 774 768 761 760 756 748 742 741 741 737 732 727 725 722 716 719 723 717 718 722 725 732 735 733 732 731 732 738 747 750 748 748 743 728 724 722 714 715 721 722 724 729 732 732 735 745 753 763 770 765 762 760 751 749 749 748 756 756 749 749 747 742 741 740 740 741 741 742 744 746 749 751 754
763 762 760 759 759 758 758 760 761 761 762 761 764 769 771 768 765 764 761 755 750 748 745 742 739 735 730 726 722 716 719 723 721 720 724 729 732 733 732 730 729 730 735 746 749 745 749 743 723 716 717 713 713 712 710 715 726 733 731 733 740 738 741 756 760 757 756 752 755 758 760 763 758 751 750 748 746 746 744 743 743 743 744 745 747 749 749 751
761 760 758 758 758 758 758 759 760 761 761 762 767 771 769 764 763 764 760 755 755 754 751 746 741 739 737 730 726 722 718 721 726 724 725 729 729 728 728 725 724 726 729 739 745 743 746 739 721 717 716 710 710 709 707 713 722 732 734 731 733 730 730 747 762 765 759 756 764 771 768 763 759 754 753 754 754 754 753 750 747 747 748 749 752 753 754 756
759 758 758 758 758 758 758 759 760 761 762 764 767 769 770 765 762 762 758 756 757 755 756 756 746 741 743 740 734 729 724 725 730 731 730 731 729 726 726 722 720 722 721 726 736 738 741 738 723 720 719 710 707 708 706 707 713 725 731 726 727 733 734 740 755 766 766 762 767 773 771 767 766 763 760 760 762 761 759 757 754 753 754 757 759 760 761 762
760 759 758 758 758 758 759 760 761 761 763 766 768 770 771 766 760 759 758 757 758 756 758 761 751 741 745 748 740 732 729 731 733 733 732 733 730 725 725 723 719 721 718 719 729 733 737 740 727 719 721 713 706 711 714 711 710 715 719 717 724 737 741 743 752 761 765 769 772 773 773 770 769 769 766 766 768 764 759 760 760 760 762 764 766 766 766 765
761 760 759 758 758 759 760 761 761 762 764 768 771 770 768 766 759 757 758 757 758 758 758 758 751 745 746 747 741 733 731 732 734 734 732 734 732 725 724 724 719 721 720 718 727 731 735 742 735 721 719 718 713 717 723 722 715 713 717 720 724 732 738 742 747 750 755 766 775 775 772 769 769 772 770 768 770 766 761 762 764 764 765 767 769 769 769 768
761 761 760 759 759 760 761 762 762 765 767 770 773 769 765 765 760 756 756 757 756 756 755 753 751 750 747 742 739 735 731 730 732 735 733 732 732 726 723 722 720 721 721 720 726 730 733 743 742 727 719 722 725 725 727 727 721 719 722 728 732 734 737 741 745 748 749 756 767 772 772 770 769 770 769 768 768 768 766 764 765 765 766 768 770 769 770 770
761 762 762 760 760 761 762 764 766 769 770 771 772 769 765 762 759 756 755 754 753 751 750 750 750 750 747 742 739 734 730 730 732 734 733 731 731 727 720 719 720 720 721 723 726 728 733 741 743 736 729 731 732 728 726 726 725 725 728 734 739 737 735 740 750 753 750 752 760 763 766 771 771 768 767 768 768 767 768 767 768 769 769 771 770 767 770 772
762 763 763 760 760 761 763 767 770 771 771 770 769 766 764 761 759 757 753 752 752 749 747 747 746 746 745 741 738 732 729 731 732 733 732 729 728 724 717 716 718 718 722 730 731 728 730 737 742 741 740 739 735 728 727 727 726 726 731 739 742 737 733 736 745 750 749 755 762 759 762 772 772 767 767 769 768 768 769 770 772 774 772 772 770 766 768 772
762 763 762 761 763 763 765 770 772 771 770 768 766 764 763 762 759 757 754 752 751 748 746 745 742 742 739 735 733 730 728 730 731 729 729 726 724 722 718 717 719 720 724 733 734 727 729 739 743 743 744 740 733 728 727 727 726 727 734 741 741 739 738 736 740 743 745 754 758 756 765 774 771 768 769 769 769 770 770 770 772 774 774 772 771 770 772 775
765 765 763 763 763 763 767 771 771 772 770 768 769 766 763 762 760 758 756 754 750 748 747 745 741 739 736 732 731 729 727 730 730 728 728 727 725 723 720 718 720 722 723 727 728 726 735 746 746 748 756 753 745 740 733 729 731 734 740 743 741 740 741 740 743 742 744 756 756 752 767 778 772 770 771 771 771 772 772 772 771 773 775 773 773 774 776 777
766 766 765 763 762 762 767 771 771 773 772 772 772 769 765 763 758 756 756 754 750 748 748 744 739 738 737 734 732 730 728 728 729 729 728 728 727 725 724 721 720 723 724 723 721 723 736 748 746 748 758 761 758 752 745 741 741 742 744 744 742 741 738 739 743 739 743 759 758 754 768 778 773 772 773 774 775 775 775 776 774 775 777 777 777 778 780 780
765 766 767 766 764 765 768 771 771 771 772 774 773 770 768 766 760 755 755 753 749 747 747 744 739 738 739 737 735 735 733 730 729 730 732 732 730 729 728 724 722 724 724 723 724 727 738 750 752 750 753 757 756 752 748 747 745 746 747 745 745 745 740 739 742 744 751 761 762 762 769 773 773 774 775 776 777 777 778 779 778 780 782 783 782 782 783 784
765 767 769 768 767 768 769 770 770 770 771 773 772 770 770 769 763 757 754 752 750 749 747 745 742 742 743 741 737 737 738 735 732 734 737 736 733 731 730 727 725 725 725 726 728 731 739 751 757 758 758 759 757 752 749 748 750 754 755 750 750 748 741 738 746 756 760 758 761 769 770 769 773 775 775 777 778 779 782 784 783 785 786 786 786 785 786 786
766 768 770 769 768 770 770 769 769 770 771 772 771 771 771 770 766 762 758 754 752 750 747 746 747 746 746 745 741 740 742 739 737 740 741 739 736 734 732 730 730 729 728 730 732 734 744 756 759 759 760 759 756 754 753 754 758 764 764 760 759 756 748 747 758 770 765 754 758 769 772 774 779 779 779 781 781 783 787 789 789 789 789 789 790 789 790 790
767 768 770 769 768 770 771 770 769 769 769 770 770 771 771 770 767 765 762 759 755 751 749 750 750 748 747 745 742 745 747 744 743 745 744 741 739 738 736 736 736 733 730 733 738 740 748 761 762 759 761 762 760 759 758 758 761 765 768 768 766 765 762 762 769 774 769 763 765 771 777 786 792 790 788 788 787 789 792 793 794 794 793 793 793 793 795 795
768 768 770 769 768 770 770 769 769 769 769 769 769 770 771 769 766 765 763 761 760 755 752 752 751 749 749 746 743 746 748 746 747 748 746 744 742 740 740 742 740 737 734 737 743 742 747 761 766 760 762 768 767 763 761 760 760 763 768 770 768 767 769 769 771 772 771 773 777 777 781 792 798 796 794 793 792 793 795 797 799 799 798 797 797 799 800 800
768 769 769 769 770 773 771 768 770 771 770 771 770 770 770 768 765 765 762 759 759 758 755 753 751 749 749 747 744 744 745 746 746 746 746 746 744 742 742 742 740 738 739 742 746 745 748 761 767 761 763 772 773 770 769 763 758 759 766 774 776 774 773 774 774 774 772 774 779 779 782 793 799 798 797 799 799 800 802 803 803 803 803 802 802 804 805 805
768 768 769 768 771 777 776 772 773 774 771 773 772 769 768 767 764 766 764 757 755 755 753 752 752 749 747 746 743 742 742 743 742 744 746 745 742 741 742 741 739 740 741 745 749 750 751 758 762 760 765 774 776 778 778 769 761 764 774 783 783 778 776 776 778 779 777 775 776 778 786 797 801 799 801 806 807 808 809 810 808 807 807 806 806 808 810 809
Wind_Speed
14 13 13 13 13 13 12 12 12 13 13 13 13 13 14 14 14 14 14 13 12 13 13 14 13 14 14 15 15 16 19 21 23 16 10 15 17 12 9 4 7 18 17 12 9 6 6 4 4 6 6 4 2 1 3 3 2 2 3 2 2 4 5 5 5 5 3 6 8 9 7 7 8 5 3 5 7 5 6 6 3 5 6 9 16 24 27 27
14 14 14 13 13 13 13 12 13 13 13 14 14 14 14 14 14 14 14 14 13 13 12 13 13 14 14 14 14 15 20 22 20 17 12 11 12 10 10 8 8 17 18 12 10 7 7 4 5 5 4 3 1 2 3 3 3 3 3 2 4 6 4 4 4 4 4 6 10 11 6 5 7 4 1 2 2 3 6 4 4 8 9 12 18 24 25 27
14 14 14 13 13 13 13 13 13 13 13 14 14 14 14 14 14 14 14 14 13 13 13 13 13 14 14 14 14 15 19 17 11 10 6 10 11 9 9 15 11 14 15 10 11 12 8 6 9 7 3 2 1 2 2 2 3 3 3 2 7 6 5 5 4 6 7 8 11 12 6 6 8 4 1 2 2 2 2 4 4 7 11 14 15 18 22 25
14 14 14 13 13 13 13 13 13 13 13 14 14 14 14 14 14 14 14 14 14 13 12 13 13 14 13 12 13 14 14 8 5 4 2 9 15 11 10 20 13 13 11 5 4 11 8 6 10 5 2 2 2 2 3 3 3 2 4 5 7 3 5 7 4 7 9 8 9 10 9 10 8 2 2 5 4 2 5 6 7 11 15 16 15 14 17 20
14 14 14 14 14 14 14 13 13 13 13 14 14 14 14 14 14 14 14 13 14 13 13 12 13 13 11 11 10 10 9 3 3 4 5 11 15 10 11 22 15 12 11 6 5 9 8 4 6 3 2 2 1 2 3 4 2 1 4 7 7 3 6 8 3 7 8 7 9 8 9 9 5 1 4 7 6 4 5 6 8 14 18 16 16 15 14 15
14 14 15 15 15 15 14 14 14 14 14 14 14 14 14 14 14 14 14 13 14 13 13 12 12 12 10 9 7 5 3 2 8 9 11 13 11 7 12 23 15 13 12 8 7 9 7 4 4 3 2 1 3 4 4 3 3 2 4 5 7 5 7 7 6 9 8 7 10 8 7 6 4 3 4 7 7 5 1 4 7 12 17 15 14 15 15 15
14 15 15 16 16 16 16 15 15 14 14 14 14 14 14 14 14 14 14 13 13 13 12 12 12 11 9 8 3 2 2 6 14 11 13 13 9 4 15 23 16 14 14 9 8 7 5 5 4 3 4 1 3 4 4 3 3 4 5 6 8 7 7 8 8 10 9 9 12 9 7 9 9 6 3 7 8 2 4 8 10 11 14 13 12 14 14 14
14 15 15 16 16 16 16 16 15 15 15 14 14 14 14 14 14 14 13 13 12 12 12 11 11 9 8 6 1 2 1 9 14 12 14 12 7 1 17 23 17 15 15 12 9 7 6 6 4 3 3 2 3 2 3 2 1 5 7 6 6 7 8 9 8 9 10 9 10 8 8 13 14 4 4 8 7 3 9 10 11 12 14 13 12 13 12 12
14 15 15 16 16 17 16 17 16 16 16 15 15 14 14 14 14 14 13 13 12 12 12 10 10 6 5 4 2 3 5 7 9 11 9 5 3 7 16 17 18 17 13 12 10 8 6 5 5 4 4 4 3 3 2 2 3 6 8 7 6 8 8 8 7 9 10 6 6 6 9 14 9 4 3 4 3 4 10 12 12 13 15 13 11 12 11 10
14 14 15 16 16 17 17 17 17 17 16 16 16 15 15 15 14 14 13 13 12 12 12 9 8 5 2 1 4 1 6 4 6 7 5 2 2 10 14 12 18 19 11 9 11 11 7 6 6 4 4 2 3 4 3 5 4 5 6 6 7 9 9 7 7 10 9 6 6 7 11 14 4 4 4 2 4 7 11 11 11 12 13 12 10 10 8 8
15 15 15 16 16 17 17 17 17 17 17 17 17 16 16 15 15 14 13 13 11 11 10 7 7 3 1 1 4 3 6 3 3 9 10 5 2 8 11 11 17 19 13 8 12 16 11 7 5 3 2 1 2 3 4 5 3 4 3 5 7 8 8 6 7 9 5 5 7 9 10 12 3 2 6 5 8 10 13 12 11 12 11 11 10 9 8 10
15 15 15 15 16 17 17 17 18 18 18 18 18 17 17 16 16 16 15 13 11 10 8 7 4 1 1 1 6 11 5 1 2 3 6 6 7 8 8 10 14 18 16 9 12 20 15 8 6 3 3 1 1 3 4 4 2 3 2 4 8 7 7 7 7 7 5 4 6 6 5 9 3 5 7 7 10 10 12 12 11 10 9 8 8 6 8 8
15 15 15 16 16 17 18 18 18 19 19 19 19 18 18 18 18 17 16 13 10 9 8 6 3 2 1 1 9 16 13 11 13 14 17 17 16 16 13 14 15 17 18 13 12 17 17 11 7 5 2 1 1 2 4 4 2 3 1 1 5 6 7 6 4 5 5 5 4 7 2 7 7 10 7 5 11 10 10 11 10 9 7 6 6 6 8 8
15 16 16 16 17 17 18 19 19 20 20 21 20 19 20 20 19 19 16 12 8 7 7 4 2 2 2 6 14 17 16 15 18 21 19 17 16 15 14 15 15 16 19 18 13 9 15 14 5 1 1 1 4 4 5 5 2 2 3 2 2 2 6 7 4 2 3 3 4 8 4 6 8 11 6 6 11 13 11 10 10 9 7 6 7 6 7 7
16 16 16 17 17 18 18 19 20 20 20 22 21 21 22 22 21 19 13 8 5 4 4 3 4 3 1 9 15 13 9 9 15 18 15 15 13 11 13 14 16 18 18 20 15 6 9 11 4 1 3 3 3 3 4 4 3 2 2 4 3 2 5 8 5 3 5 4 4 8 5 5 8 11 6 7 11 13 12 11 10 10 9 7 7 6 7 8
15 16 17 17 18 18 19 20 20 20 21 22 22 23 24 23 20 13 7 6 4 3 4 2 4 4 1 7 9 7 7 8 10 10 9 15 16 14 13 10 11 15 16 18 16 9 5 5 2 3 3 3 2 2 2 4 4 2 1 4 4 2 4 6 5 4 6 4 1 4 5 3 6 9 4 8 12 11 11 11 11 10 9 8 6 5 8 9
16 17 17 18 19 19 20 20 21 21 21 22 24 25 23 20 13 5 4 3 2 4 5 1 2 3 4 8 8 7 6 5 5 4 6 15 20 19 11 4 5 9 11 12 10 7 3 2 2 2 1 2 2 3 1 3 5 3 2 2 3 3 4 4 4 5 1 1 3 3 4 5 7 9 3 8 12 11 10 11 11 10 8 8 6 6 9 10
17 17 18 19 19 20 20 21 21 21 22 23 25 24 18 11 5 3 8 8 7 5 2 2 1 1 4 5 4 5 4 3 6 7 6 12 19 20 12 5 3 4 3 4 3 3 3 2 1 1 1 1 3 4 3 5 3 1 1 1 3 3 4 5 4 4 5 2 4 3 4 7 10 10 3 7 11 11 11 11 10 9 10 9 7 8 9 9
17 17 18 19 20 21 21 21 21 21 22 24 24 18 9 3 6 6 8 8 6 3 1 3 4 2 4 5 4 6 9 11 12 10 7 13 17 17 11 5 2 5 3 1 2 3 3 1 0 2 4 3 4 5 6 6 3 2 2 3 3 4 6 7 4 5 5 5 6 5 7 9 10 12 5 6 10 11 10 8 8 8 10 9 7 9 9 9
17 18 19 19 21 21 21 21 20 21 23 24 21 12 3 3 4 3 2 2 5 5 4 5 7 6 9 9 5 7 12 11 7 5 4 11 14 9 5 2 1 2 3 3 3 2 3 3 5 6 5 5 6 7 7 4 0 2 3 3 5 5 7 8 5 6 4 3 7 6 7 9 10 13 8 7 10 10 9 8 9 10 10 9 9 11 9 9
17 18 19 20 22 22 22 21 20 21 22 18 12 6 1 2 3 4 3 4 9 11 11 9 10 12 15 14 7 6 8 6 4 7 8 7 13 9 2 3 3 3 3 4 3 1 3 5 8 5 6 6 6 7 6 3 1 2 3 5 6 5 8 9 5 8 5 1 6 6 6 10 12 13 7 7 11 11 11 12 12 12 10 9 11 12 11 8
17 18 20 21 22 22 22 21 21 21 15 7 5 2 1 1 4 7 4 5 9 12 13 14 13 15 19 20 17 6 3 5 8 11 7 5 10 7 4 4 5 5 3 2 1 2 2 6 7 5 6 6 4 3 4 3 3 3 2 3 5 4 6 8 5 6 3 3 5 7 6 10 14 11 3 8 12 11 13 16 16 15 12 11 12 12 12 11
17 18 21 21 22 23 21 22 22 14 5 6 6 4 3 7 11 12 3 2 9 9 10 13 11 11 16 17 14 7 4 6 6 10 5 8 6 6 6 6 6 5 2 4 4 4 4 6 7 6 6 5 4 3 3 2 2 3 3 2 5 4 3 5 4 4 3 2 6 6 5 8 11 5 2 3 7 8 10 11 11 14 15 17 18 16 15 14
17 19 20 21 23 22 22 23 14 2 5 14 11 7 9 14 14 9 2 1 7 5 8 14 10 8 14 10 10 13 6 6 6 8 7 10 5 4 6 6 6 5 4 6 7 6 8 8 4 6 6 7 6 5 4 4 3 4 5 5 5 5 6 7 5 5 5 4 4 3 5 6 6 4 3 4 1 6 8 9 8 9 12 15 16 15 14 12
18 18 20 21 21 23 24 17 3 2 14 14 7 9 14 15 14 5 2 1 5 5 5 9 6 7 11 6 12 13 4 4 7 8 7 12 8 4 4 4 4 6 7 7 7 6 11 7 5 6 5 6 6 6 5 7 4 4 5 9 10 9 10 9 7 5 5 5 3 4 4 6 6 4 1 3 5 5 6 10 12 10 11 13 13 13 11 9
17 18 19 20 20 25 20 6 3 14 16 5 4 12 12 14 14 1 3 4 3 5 3 2 3 6 7 6 9 8 3 3 10 12 9 12 13 6 3 2 1 5 7 5 4 3 6 4 6 6 6 6 6 6 5 8 5 5 6 10 12 11 10 9 7 4 1 4 4 4 2 5 6 5 4 3 6 7 4 9 14 12 13 14 13 12 11 10
17 17 19 18 19 21 12 5 13 16 5 1 10 13 10 15 12 2 3 5 4 4 1 1 2 6 6 7 10 8 2 3 5 11 12 12 11 6 5 4 2 4 4 3 2 3 4 4 4 5 5 5 5 6 6 10 7 5 6 8 9 9 9 9 7 5 3 4 4 3 4 3 4 4 5 5 7 9 7 11 13 11 13 14 12 11 11 10
18 18 17 18 17 16 11 12 15 9 2 6 13 11 12 15 7 3 4 3 3 3 2 1 2 5 3 7 12 7 3 3 3 6 11 15 11 5 6 7 6 7 5 5 4 4 2 5 6 6 5 4 6 8 8 11 6 8 7 7 7 8 9 8 6 4 2 1 4 6 1 2 4 4 4 5 6 10 11 14 13 9 11 12 11 11 9 7
18 18 17 17 18 16 11 11 10 7 7 11 12 12 13 12 4 3 4 0 3 2 1 1 1 1 2 6 9 5 2 2 2 2 7 12 10 5 5 7 7 7 5 6 7 5 2 6 7 6 5 5 8 10 8 12 8 8 6 5 4 4 3 3 4 3 1 1 4 7 2 2 4 5 3 3 4 8 10 10 10 9 9 8 8 8 6 5
19 18 18 17 18 15 8 10 13 8 8 11 12 13 12 6 3 4 0 3 3 2 1 1 3 4 3 3 5 6 3 2 1 3 5 4 5 4 2 3 5 3 2 1 6 6 3 3 4 5 5 6 9 9 7 14 12 3 4 4 4 1 2 2 2 4 2 2 7 9 5 4 1 4 3 1 3 7 9 8 8 9 8 7 6 6 5 6
20 20 19 17 15 10 6 8 7 3 8 12 13 11 7 3 4 3 3 4 2 3 3 4 5 6 4 3 5 5 4 2 1 5 4 2 4 3 1 2 3 3 2 3 4 5 5 2 3 4 6 6 6 7 4 9 10 3 3 3 3 4 4 4 4 3 3 4 7 7 5 6 2 4 5 4 4 10 12 11 13 13 11 9 6 4 4 6
22 22 20 17 14 12 10 6 3 5 9 11 9 5 3 3 1 2 4 4 3 2 4 5 7 9 8 6 5 5 3 2 2 5 6 4 5 5 4 4 4 1 2 4 3 5 5 4 4 4 5 6 5 5 3 1 5 5 3 3 2 2 3 3 3 1 2 6 5 4 2 4 3 5 5 7 6 12 12 10 14 14 11 8 5 5 5 6
23 21 18 15 12 15 14 8 6 8 9 6 4 4 6 3 2 4 3 3 1 2 4 5 10 11 9 5 2 5 3 2 3 3 5 6 6 6 6 4 5 5 2 3 3 3 4 5 4 3 4 4 7 4 2 1 4 6 5 4 4 2 1 2 3 1 2 5 3 4 1 1 3 4 4 8 5 9 7 4 8 11 10 8 6 6 5 5
21 18 15 11 10 14 13 8 5 4 4 3 3 5 5 2 4 3 2 3 3 4 6 7 11 10 5 3 3 2 2 1 1 3 2 4 5 5 5 3 4 5 2 2 3 3 2 4 4 5 3 2 7 8 7 5 5 5 5 6 5 4 4 3 4 2 3 3 3 5 1 1 2 4 6 7 1 4 4 4 6 8 8 8 7 7 6 6
18 15 12 10 9 10 8 6 6 3 1 2 6 5 3 3 3 1 1 3 3 5 8 9 8 5 4 3 4 4 2 1 0 3 2 3 5 5 5 6 6 4 4 3 2 1 4 5 7 5 3 2 3 5 5 6 3 3 2 6 3 5 6 2 3 5 3 1 2 3 0 1 3 2 7 6 5 5 2 5 7 7 6 6 7 7 7 6
16 12 7 6 5 3 3 10 10 6 3 5 5 1 3 4 3 2 1 3 2 5 9 9 4 2 5 4 4 8 5 1 2 3 1 2 3 4 3 4 6 7 6 4 3 1 2 5 7 4 4 4 5 5 3 4 3 1 2 3 3 4 7 4 1 0 2 2 1 2 1 3 3 3 7 8 8 8 5 2 3 4 3 4 3 2 2 2
18 12 4 3 2 4 8 12 12 7 4 6 4 3 3 3 3 3 1 3 3 4 4 4 3 2 3 4 4 7 6 2 3 2 1 1 1 3 2 1 2 7 8 5 2 3 3 4 6 3 6 8 5 4 2 1 4 4 2 5 2 3 4 4 2 3 4 2 2 1 1 2 2 1 4 7 8 8 8 6 4 2 4 4 5 7 7 6
16 9 4 1 4 9 11 12 10 5 4 5 1 3 2 2 2 1 2 4 3 3 2 1 3 1 3 4 4 5 5 3 1 1 1 1 2 2 2 1 1 1 6 7 2 2 2 3 7 4 5 7 3 2 1 5 2 5 4 3 4 2 0 1 3 1 1 2 1 2 1 2 2 1 3 4 5 6 5 4 5 6 7 8 8 9 8 6
9 4 3 1 9 12 12 11 6 3 5 3 1 2 2 3 4 3 3 4 2 1 2 3 2 2 4 3 4 5 5 3 2 1 1 0 2 2 1 2 1 4 2 6 5 2 2 1 6 5 3 4 6 3 1 4 4 3 3 2 2 3 4 2 2 3 4 3 2 0 2 2 3 2 3 1 1 4 4 4 3 5 5 7 6 6 6 5
2 2 2 2 10 15 12 7 2 4 3 1 2 3 2 2 4 4 4 4 2 2 3 3 2 3 4 4 4 5 3 2 2 2 2 1 2 3 2 2 1 2 3 4 3 1 2 2 3 6 5 3 2 1 3 4 1 2 2 1 2 1 3 2 0 2 4 4 3 2 1 4 3 1 3 3 4 1 2 2 2 3 1 6 5 5 5 4
2 2 1 1 11 17 10 4 2 2 2 1 2 3 3 3 4 5 5 4 3 3 4 5 4 4 4 4 4 4 2 1 2 2 2 2 2 2 3 4 3 2 2 5 3 1 1 2 2 4 4 2 2 2 1 3 5 5 3 2 2 2 4 3 1 2 2 4 4 4 2 5 3 0 2 1 3 4 2 2 2 1 2 4 3 5 6 4
3 2 1 1 13 17 8 3 1 1 2 2 2 3 3 4 4 4 4 4 4 4 4 4 5 4 5 4 4 4 2 1 2 2 1 3 4 3 3 4 4 3 4 2 2 1 2 4 2 2 2 3 5 4 3 1 5 7 3 2 3 2 3 5 3 3 2 3 2 3 2 3 3 2 2 3 3 3 4 4 4 3 3 3 3 6 7 4
2 1 2 5 13 13 5 3 2 3 1 3 3 3 3 3 2 3 3 3 2 3 2 2 3 4 4 4 3 3 1 1 2 2 2 2 2 3 2 2 3 3 5 2 3 1 2 3 2 2 3 4 6 6 5 4 4 6 3 2 2 1 1 5 5 3 3 3 2 3 1 2 1 2 3 5 6 6 6 5 5 3 2 4 6 7 6 4
2 1 1 3 7 7 2 0 2 3 3 3 4 3 3 2 3 2 3 3 2 2 1 2 3 3 3 3 2 2 1 1 1 1 1 0 2 4 4 5 4 2 2 3 3 1 0 1 2 2 3 4 5 6 6 5 3 3 1 3 2 3 3 2 1 3 3 3 3 4 1 3 0 3 4 6 8 8 6 5 5 4 3 5 6 6 5 3
2 0 1 4 3 3 2 3 3 2 4 3 3 4 4 3 3 3 3 4 4 2 2 4 4 3 2 2 2 2 1 1 2 1 2 1 2 4 6 7 5 3 1 0 3 3 3 2 3 4 3 2 2 2 3 2 2 2 1 3 3 5 5 2 2 4 2 2 3 4 3 2 3 5 6 7 8 9 7 5 5 5 5 5 5 5 5 4
2 1 1 4 6 4 1 1 3 2 2 1 2 3 3 3 4 3 3 3 3 2 1 3 3 1 2 3 4 4 4 2 1 2 3 3 2 3 5 6 6 5 4 7 7 4 4 2 2 4 5 4 5 5 5 2 2 2 3 5 4 3 4 4 4 2 3 2 3 0 4 6 7 8 8 7 8 9 6 5 5 6 6 5 5 6 7 7
2 1 1 0 2 3 2 2 2 1 1 2 2 3 3 4 4 3 2 1 3 3 2 2 4 3 2 3 2 3 5 5 4 4 3 4 2 3 5 5 6 6 5 6 6 3 5 3 3 3 3 1 3 3 1 3 4 3 4 6 7 5 6 7 5 1 4 4 1 2 3 8 8 8 8 7 7 8 6 5 5 6 6 5 6 8 10 10
2 1 2 2 0 0 1 1 1 2 0 2 1 3 4 4 4 3 3 3 4 4 1 2 6 5 3 3 2 2 5 4 5 4 3 4 3 3 5 5 5 5 3 4 5 3 6 2 2 2 4 6 6 4 6 8 6 5 7 7 8 7 6 7 4 1 4 4 3 5 6 5 4 5 5 5 6 8 7 6 5 5 7 7 7 10 11 11
2 1 2 2 2 3 2 1 1 2 1 1 0 2 2 4 5 3 3 3 4 5 2 2 6 6 6 4 4 3 2 2 2 3 3 3 3 2 3 2 3 4 4 5 4 3 5 1 2 1 4 7 9 6 6 7 6 6 8 8 8 7 6 8 5 4 6 5 5 10 10 5 4 5 5 6 7 8 8 7 7 7 8 8 9 10 11 10
1 1 1 2 2 1 1 1 2 2 2 2 1 1 0 2 4 4 3 0 2 5 3 3 5 6 4 4 4 3 2 4 3 4 2 3 3 3 2 1 1 4 4 4 2 4 4 1 3 2 4 5 7 5 6 7 8 7 8 9 10 8 6 6 5 6 8 7 7 9 8 5 4 4 6 7 7 8 9 9 8 8 8 9 10 11 10 10
0 2 2 3 2 3 3 2 2 2 2 3 1 1 1 2 3 2 3 2 2 3 4 3 6 5 2 4 4 2 4 5 6 7 4 2 1 0 1 1 1 2 4 3 2 3 3 2 1 3 4 2 4 5 6 6 7 8 8 10 10 6 4 3 3 3 3 8 10 7 4 3 2 4 7 8 8 10 10 8 8 8 8 9 11 11 11 10
2 1 2 4 2 3 3 3 3 3 1 2 2 2 2 4 3 0 1 3 3 3 5 4 4 4 3 4 4 4 5 6 6 6 4 5 6 3 3 4 2 1 1 2 1 2 3 3 1 2 3 0 3 5 6 6 4 4 5 7 7 3 1 2 4 5 3 5 7 5 4 4 4 5 9 9 8 9 9 7 7 7 8 9 11 11 10 9
Wind_Direction
345 345 344 344 344 342 342 342 342 339 340 338 337 337 335 334 333 332 328 322 319 316 317 318 318 318 318 319 321 325 320 316 314 305 266 279 293 273 244 258 204 179 168 159 150 126 121 142 178 164 140 138 161 164 168 165 130 85 103 138 202 231 231 195 194 202 233 298 311 317 348 350 316 320 342 14 32 69 77 37 37 43 54 103 119 132 140 143
343 343 342 342 341 339 339 340 339 338 339 337 336 336 334 334 331 332 330 326 324 319 320 318 316 317 316 321 326 328 321 315 308 284 270 308 318 280 226 196 182 176 178 190 203 176 134 171 183 145 124 129 222 159 166 190 148 145 133 150 222 223 228 199 213 260 295 296 299 305 318 333 297 277 333 54 348 16 77 53 55 79 86 106 122 135 141 144
342 342 340 339 337 337 338 338 338 337 337 336 335 334 333 332 331 331 330 329 326 323 322 320 319 318 318 326 331 329 320 315 306 271 286 4 352 309 205 183 176 169 181 200 212 198 167 174 167 136 105 144 238 149 168 219 171 182 147 185 237 227 268 270 260 276 279 280 292 295 301 327 292 259 18 142 161 355 131 136 111 124 131 132 137 142 146 148
342 340 338 337 335 335 337 336 336 335 334 334 333 332 331 329 329 328 329 330 328 325 322 321 320 318 322 331 331 328 324 317 295 259 307 356 348 338 184 180 177 163 170 160 180 194 172 143 157 139 97 168 290 121 176 228 192 187 161 211 244 211 272 271 250 260 267 271 275 288 307 310 291 230 158 160 130 313 241 207 176 157 151 144 145 149 150 152
342 339 338 335 334 334 335 335 333 333 332 332 331 329 328 327 327 326 328 329 328 328 323 322 321 322 328 334 337 333 335 350 295 286 316 329 338 337 176 174 176 164 160 151 142 165 161 126 142 132 83 160 227 138 218 228 166 221 203 227 250 214 258 276 280 263 266 279 283 294 297 290 302 58 177 168 158 230 239 216 190 159 156 152 152 154 155 158
343 340 339 335 335 334 333 333 331 332 330 330 329 328 327 325 325 325 325 324 325 327 324 323 323 325 334 342 347 345 4 291 293 302 319 327 334 332 170 169 172 163 161 168 153 145 156 126 118 144 112 142 198 196 251 250 151 234 258 244 251 231 243 278 293 275 275 288 286 282 288 304 332 328 217 195 201 237 288 135 152 157 160 153 148 154 161 164
343 341 339 336 335 333 332 331 330 331 330 329 329 327 326 324 323 322 321 321 322 324 324 324 324 328 341 352 354 25 84 256 281 299 317 322 326 332 165 170 170 168 170 168 157 147 150 129 130 154 119 133 208 210 257 266 162 200 261 265 260 251 243 260 265 271 278 270 269 277 313 308 280 277 219 230 240 207 86 109 126 147 157 148 148 157 164 167
343 341 339 336 334 333 332 329 329 329 328 327 325 324 322 319 318 318 318 318 318 321 322 322 326 333 344 354 18 358 289 253 281 303 308 306 303 184 160 171 173 173 179 182 173 153 142 138 166 160 121 207 194 203 246 271 252 210 241 262 267 267 254 261 266 273 278 268 270 284 293 275 261 241 167 236 262 137 114 113 123 141 153 156 162 162 166 169
342 340 338 336 333 331 330 329 328 326 326 324 322 321 318 317 317 317 317 316 318 318 318 320 319 335 358 354 54 342 269 254 299 314 310 302 272 174 161 169 177 179 182 193 183 154 157 168 192 179 150 208 200 223 214 164 260 216 223 249 260 273 268 271 279 269 269 265 266 277 271 265 251 172 191 251 275 136 119 119 132 145 156 162 168 171 174 162
340 339 337 334 332 329 328 327 325 323 322 321 320 320 318 319 317 315 314 312 315 313 313 317 312 333 353 319 79 335 265 286 336 353 8 42 182 176 171 175 182 185 181 188 184 172 177 176 184 172 146 210 211 223 190 168 229 217 219 254 248 263 271 263 267 263 270 273 244 242 259 267 252 152 237 241 141 141 119 125 145 151 162 167 173 175 157 113
338 338 336 333 330 328 327 325 322 320 318 319 320 321 320 320 318 317 316 311 309 310 311 311 309 318 296 135 117 232 261 312 18 51 46 47 115 182 191 197 191 189 183 178 199 199 189 164 148 117 144 241 237 261 240 191 228 250 248 293 275 273 278 255 259 264 269 273 232 210 248 274 307 168 228 187 152 147 133 141 156 159 169 173 175 163 121 108
336 335 334 332 330 327 326 323 320 318 318 319 319 320 321 320 321 322 318 312 304 305 305 302 303 219 315 40 208 237 246 263 279 2 341 318 309 275 247 231 211 202 196 184 213 211 194 160 131 139 210 240 343 312 263 222 243 260 235 305 295 312 301 253 241 241 205 242 228 172 264 292 287 234 235 173 151 149 142 149 157 164 176 172 170 151 122 130
333 332 331 330 328 326 324 321 320 318 318 318 318 320 320 319 323 322 317 309 295 296 294 285 280 218 268 257 239 257 269 270 275 279 276 280 286 280 267 252 239 226 217 212 224 216 198 180 158 181 219 54 271 267 279 289 304 268 232 234 300 332 304 262 239 233 201 235 200 137 261 282 260 255 253 171 150 141 142 156 158 164 176 169 168 150 136 146
332 329 328 328 328 325 322 322 320 319 318 317 318 319 319 322 321 315 310 297 278 285 279 254 219 179 184 253 268 281 284 280 274 267 260 261 266 268 263 250 244 238 230 230 239 224 200 196 182 220 279 198 241 289 319 322 352 304 289 273 306 288 278 292 297 257 235 263 145 142 225 258 263 265 240 175 156 147 153 166 162 166 171 168 175 160 140 144
330 327 327 328 327 325 323 322 320 319 317 316 318 319 321 323 317 308 298 269 256 268 246 202 192 180 323 278 281 289 284 277 269 260 247 240 238 247 251 238 235 238 233 233 240 233 186 181 169 255 267 239 235 304 321 331 355 7 283 287 317 206 269 305 297 222 227 278 119 148 225 263 264 267 230 172 166 158 159 168 169 170 168 168 178 162 134 133
327 326 327 328 327 326 324 321 320 318 318 318 318 321 324 323 315 303 273 227 218 203 188 192 208 190 278 282 290 299 268 253 261 262 237 222 212 219 233 222 227 234 230 235 240 240 196 150 169 202 241 263 201 195 332 340 325 355 207 255 286 269 296 319 305 246 216 247 324 173 217 267 265 269 242 169 174 166 161 169 172 171 167 168 170 141 127 133
327 327 328 329 328 326 323 320 320 319 320 322 321 323 327 328 319 277 191 162 157 160 161 186 232 200 253 271 291 299 273 241 248 272 237 212 205 212 217 188 212 221 221 235 240 238 218 152 227 222 249 263 156 123 46 281 268 317 4 256 261 257 274 302 302 305 315 176 267 242 220 246 262 273 262 171 179 167 165 175 171 169 166 166 155 127 133 147
328 329 330 329 327 325 322 320 320 321 324 323 322 326 331 344 6 114 133 118 102 111 161 281 286 234 259 258 277 291 298 322 311 302 261 210 203 209 209 198 192 152 173 243 231 199 202 218 224 266 304 217 135 122 178 226 202 156 340 257 282 286 260 266 265 299 348 359 254 288 278 265 266 271 258 171 182 172 177 177 162 164 166 164 146 131 145 157
329 329 329 328 326 324 322 321 322 326 328 323 324 332 334 30 64 87 114 120 107 104 225 216 184 203 263 247 254 294 306 313 309 295 237 200 201 210 215 218 170 126 130 256 248 201 191 240 315 226 243 210 185 172 188 201 147 148 220 184 246 291 272 263 254 263 315 323 276 274 271 268 270 268 245 170 183 183 179 158 145 162 168 162 139 137 155 163
328 328 328 327 325 323 321 322 325 329 329 322 327 343 358 32 36 43 79 169 208 223 246 207 192 239 282 281 296 326 316 308 294 281 225 193 183 185 214 221 131 143 153 164 223 236 145 192 239 223 202 170 189 200 196 205 63 328 297 259 253 270 274 276 278 275 300 314 275 257 254 265 265 264 250 171 180 186 165 144 158 169 167 158 142 149 162 168
327 327 328 327 324 322 321 323 327 329 325 319 329 357 20 14 6 324 312 258 235 227 246 240 213 239 261 268 285 349 344 319 274 284 282 212 160 145 201 191 162 219 218 169 206 317 123 207 238 208 177 178 199 200 190 212 283 286 273 289 285 259 269 281 282 284 288 216 264 270 270 272 260 260 257 155 170 187 169 159 172 169 158 150 145 154 164 168
328 328 328 326 323 322 321 325 329 325 320 327 351 4 246 309 335 315 302 294 267 223 228 241 230 247 255 256 261 275 339 296 289 296 283 180 155 158 190 171 171 218 240 131 165 292 227 233 241 202 178 194 230 196 159 196 230 234 244 283 280 269 291 294 281 278 273 158 261 281 271 270 267 267 251 157 173 191 181 173 172 162 150 148 153 160 166 168
326 327 328 325 324 322 322 327 327 318 315 346 321 262 293 331 336 323 295 296 283 228 210 230 222 240 253 255 244 207 210 232 255 284 238 154 168 174 164 172 180 191 183 170 189 208 234 249 233 203 171 173 245 251 160 189 239 216 211 233 263 273 297 284 285 291 281 229 260 287 290 272 281 309 43 179 186 178 181 173 162 158 156 162 168 169 170 171
324 327 327 324 324 322 323 328 325 271 325 323 295 284 332 336 340 332 223 220 282 245 209 218 201 215 243 244 186 169 206 208 187 255 219 158 155 148 162 174 162 179 201 189 189 206 240 249 192 155 157 173 226 251 193 203 258 236 207 206 245 261 240 240 274 303 315 297 255 323 334 293 309 6 45 348 25 142 156 140 131 155 162 164 168 170 171 171
323 326 325 326 326 323 326 330 313 284 324 316 289 328 341 337 342 336 182 2 285 275 247 221 196 222 231 193 161 165 190 219 196 225 194 166 168 142 177 178 146 194 207 187 185 219 246 241 134 134 163 173 207 242 206 185 226 267 221 205 216 239 246 249 274 305 353 324 277 52 8 296 325 10 56 14 52 101 139 143 145 155 159 163 168 171 170 171
321 323 325 326 326 328 333 335 318 326 323 310 336 340 334 333 345 348 154 28 294 280 297 196 159 206 205 159 157 139 95 251 213 206 196 184 181 152 162 197 155 199 191 174 181 226 243 203 147 168 183 176 201 242 212 170 184 263 234 203 208 225 242 249 256 258 304 282 272 76 94 266 320 356 341 2 89 97 98 146 154 158 163 172 176 173 170 176
319 321 326 324 326 337 340 304 317 326 319 304 336 335 325 332 345 144 124 21 299 267 201 167 150 183 186 164 156 134 150 254 192 199 201 188 179 153 174 192 160 196 173 137 213 242 212 184 175 181 173 178 207 243 209 160 157 245 225 185 198 218 226 229 223 216 234 272 303 39 120 207 299 319 331 6 98 111 122 149 159 166 169 175 177 173 175 180
318 321 323 320 323 328 313 295 307 311 274 318 327 328 323 327 337 135 86 30 278 265 179 223 192 176 165 161 166 166 211 165 126 213 194 179 178 151 184 198 179 196 173 139 212 257 182 196 208 185 170 186 213 233 195 150 167 245 217 174 199 216 215 214 197 200 252 353 308 311 97 167 280 284 322 7 101 132 152 162 166 172 174 177 176 173 175 173
318 319 318 318 318 317 305 281 274 276 304 320 328 327 319 319 337 93 73 26 268 292 211 250 262 197 85 152 191 236 285 135 152 210 160 175 189 163 189 203 182 197 189 163 213 251 223 207 195 161 172 204 231 241 181 156 201 241 199 177 210 213 210 200 157 145 68 53 260 270 244 177 272 291 319 17 117 153 164 168 170 173 177 180 177 171 161 148
319 315 316 317 313 317 313 272 265 285 325 327 328 324 317 325 47 75 120 247 269 303 296 17 1 2 59 152 224 255 269 310 6 108 110 164 189 171 181 161 138 158 191 224 236 249 266 221 174 156 193 209 231 245 188 180 205 206 142 190 232 283 21 51 98 97 87 279 255 247 219 159 249 283 251 186 179 175 165 164 175 182 181 184 184 174 157 151
319 314 313 309 301 303 304 278 270 322 339 326 324 325 330 24 69 102 213 252 289 311 344 12 5 4 355 244 243 250 248 288 38 115 118 104 146 170 19 77 98 74 359 303 277 286 311 283 229 217 215 210 223 249 222 194 201 158 112 172 220 294 5 28 4 55 114 251 262 252 206 142 148 258 241 260 230 186 176 174 177 182 184 183 173 154 154 156
319 315 310 301 283 258 247 250 262 311 318 318 324 345 62 68 17 192 239 304 339 331 350 351 341 339 315 270 219 225 231 213 190 141 145 149 156 186 195 179 176 126 293 250 260 307 299 246 259 278 239 208 199 252 299 154 163 148 129 103 116 289 353 2 311 81 184 244 260 277 199 146 202 235 244 295 255 196 195 189 176 176 174 167 147 141 153 161
318 317 313 301 272 245 246 263 280 289 301 310 338 36 83 92 231 225 272 318 317 321 349 340 326 320 305 298 247 214 200 202 225 174 152 155 162 199 218 204 171 162 219 212 195 278 291 290 292 295 278 216 173 193 249 177 153 155 159 142 134 141 71 297 272 266 251 243 264 311 289 198 278 267 292 313 269 193 199 194 166 162 155 153 152 146 147 172
319 322 315 296 266 256 263 272 262 262 288 315 42 63 91 146 232 242 297 272 265 327 355 341 322 317 311 316 312 221 164 232 225 145 125 134 154 201 229 226 179 161 173 171 168 192 212 299 268 203 254 241 180 190 188 166 157 170 164 140 142 153 152 217 232 200 235 243 307 332 6 166 257 303 331 332 1 141 155 148 146 153 153 155 158 148 154 189
324 327 311 285 270 274 265 222 195 192 212 61 65 75 138 202 251 244 252 273 308 343 339 329 317 322 333 309 314 359 79 197 36 97 118 152 170 195 205 210 198 151 129 167 220 184 168 245 257 233 249 245 215 214 164 127 134 212 143 107 142 183 160 183 199 177 189 178 358 339 322 210 227 310 355 12 44 55 109 161 161 169 166 159 167 166 171 191
329 334 310 269 266 283 184 165 160 163 151 82 72 102 191 214 229 175 245 315 338 332 330 332 335 347 336 321 328 355 20 102 19 41 142 172 186 199 200 218 199 170 154 164 212 178 138 252 273 308 303 251 231 232 177 157 180 203 124 152 206 171 135 129 198 151 75 123 342 342 272 309 321 5 12 25 29 19 3 282 192 169 136 139 160 131 101 76
333 342 335 259 220 152 153 153 147 143 107 81 100 202 221 226 207 183 326 344 299 310 351 351 323 312 337 340 322 334 359 20 11 14 255 280 224 199 192 259 200 185 181 161 213 211 155 259 279 309 293 273 239 210 216 168 138 125 186 203 175 76 93 111 134 13 35 153 265 351 210 291 1 2 351 14 15 7 359 335 314 10 48 51 42 43 45 46
330 337 337 301 163 156 153 150 144 131 83 72 117 235 218 226 251 242 337 344 300 315 13 244 273 313 360 342 302 311 339 329 342 69 201 289 275 223 155 178 7 212 183 155 181 259 144 262 289 271 249 287 330 127 307 335 51 127 175 174 107 103 223 98 134 137 92 164 261 341 284 246 156 210 322 4 355 349 6 354 332 353 36 42 38 45 45 47
328 347 353 82 153 159 157 153 143 78 64 71 217 252 228 243 276 277 301 317 288 283 287 228 229 320 324 304 272 296 313 268 214 150 154 175 257 253 132 163 24 9 49 137 157 239 100 175 283 281 247 317 3 62 195 305 345 63 78 27 41 132 163 165 152 152 144 157 195 263 327 278 205 234 298 265 295 347 15 65 16 344 38 60 52 50 42 43
348 72 8 133 161 165 157 146 84 52 77 153 200 225 259 263 272 276 275 286 276 245 255 248 253 291 288 282 271 281 290 234 176 171 202 191 222 243 207 172 144 37 23 65 127 159 57 108 251 292 329 10 4 286 201 202 160 82 93 46 352 64 126 156 130 107 128 142 167 160 224 269 246 237 270 215 152 80 347 102 128 268 62 79 75 67 46 40
47 74 353 221 174 169 147 94 33 72 132 229 217 224 280 298 285 289 273 247 244 241 238 250 261 255 258 284 281 260 272 271 179 161 223 203 171 227 219 172 160 166 52 32 40 99 76 117 194 292 342 8 260 275 242 178 140 134 142 133 150 148 125 127 286 307 104 125 161 157 182 269 278 315 309 289 146 160 198 156 147 220 75 78 84 84 70 50
60 81 63 157 172 165 123 54 271 83 140 225 252 242 284 296 277 290 279 240 233 237 233 240 249 246 238 242 246 241 260 281 208 158 222 205 179 218 232 154 142 137 107 81 289 226 130 106 101 294 287 251 272 323 349 327 103 105 103 122 139 136 108 128 194 243 105 100 139 114 106 269 290 357 39 54 84 110 91 79 83 68 62 88 101 97 94 85
99 110 84 127 171 166 85 15 292 358 266 249 293 269 276 285 268 294 295 270 254 245 244 248 256 260 243 231 238 239 233 231 211 197 215 209 213 274 290 109 114 94 101 149 254 284 77 76 67 314 308 309 309 328 334 326 56 79 39 33 98 52 97 144 171 178 133 145 143 83 63 257 297 24 68 85 86 91 92 97 105 97 68 84 93 98 108 120
129 241 83 102 174 175 91 288 277 324 277 291 330 299 292 275 238 266 287 285 277 257 265 266 262 266 259 257 249 234 217 157 176 256 263 135 1 348 28 61 65 58 112 192 211 163 104 71 94 80 8 349 330 330 333 333 20 77 26 342 18 60 72 125 140 78 104 183 151 116 176 251 292 74 85 86 83 86 92 101 105 100 81 78 85 92 102 112
71 188 278 2 32 99 132 185 167 221 268 315 330 301 307 290 250 248 254 260 250 231 248 260 255 257 279 316 328 309 331 127 150 353 1 35 13 9 27 45 62 60 344 52 95 110 141 149 116 127 152 179 213 264 264 274 1 39 12 351 18 58 73 142 133 80 116 202 98 116 178 205 134 119 105 96 95 95 95 93 84 72 61 58 61 69 69 65
93 92 291 334 12 53 79 188 124 158 256 338 351 305 299 300 293 268 241 245 260 275 281 274 289 324 339 2 12 352 349 4 46 50 35 6 5 2 359 25 59 59 47 52 52 75 116 89 66 115 142 177 206 231 236 189 77 32 349 356 8 40 71 91 85 85 173 145 46 259 175 138 139 139 120 112 113 113 114 105 89 78 67 57 57 67 68 64
98 113 156 250 344 14 6 346 66 100 224 133 50 330 302 302 313 309 299 307 311 310 287 308 357 38 1 343 27 6 341 348 17 41 19 343 349 342 345 23 41 25 42 50 27 58 98 48 9 71 78 7 258 252 278 77 74 49 16 2 351 358 50 74 75 117 146 115 30 274 137 121 136 138 126 123 120 118 114 94 89 92 80 65 64 71 72 69
94 170 177 146 147 17 20 319 337 8 322 160 89 338 317 322 340 344 326 323 321 322 3 354 351 12 351 328 110 50 343 360 20 13 347 342 357 351 352 21 18 359 37 39 10 79 104 40 327 69 51 22 14 33 75 87 83 55 40 21 0 5 56 86 92 139 132 133 172 155 114 100 103 96 92 94 95 100 95 77 71 77 74 69 65 68 68 63
83 94 308 31 112 185 209 255 11 22 330 228 322 347 333 344 353 334 294 324 338 335 65 51 332 336 346 359 102 90 2 56 33 323 323 348 3 35 25 15 347 350 52 56 14 62 96 55 311 74 66 32 14 17 62 85 89 58 38 29 18 21 65 94 101 108 103 103 132 124 105 71 29 27 43 65 82 90 84 68 55 57 66 70 65 62 59 52
96 143 286 32 54 245 266 339 55 55 344 318 338 308 274 353 340 309 282 77 358 327 4 36 322 313 334 11 78 118 177 142 172 251 286 6 9 38 42 169 263 338 23 63 17 18 67 113 295 33 66 16 355 14 51 74 87 67 32 20 19 22 45 71 89 96 90 87 100 106 99 70 26 32 54 64 73 79 74 67 58 49 49 58 58 52 47 43
104 188 159 101 46 339 345 352 29 69 9 343 334 262 274 299 293 298 295 220 193 289 315 322 309 306 332 20 52 170 213 182 195 230 232 220 231 73 6 227 183 338 4 48 20 12 69 120 313 60 84 337 331 6 12 27 62 59 26 6 1 7 31 47 60 68 110 131 125 115 110 98 79 81 73 57 54 63 60 53 58 52 38 46 53 50 46 44
359 335 77 102 81 345 356 359 16 56 12 303 280 251 281 292 281 95 325 273 222 260 298 299 300 320 352 357 348 305 264 223 222 240 222 216 235 231 241 256 235 173 135 107 54 37 97 119 119 89 103 79 349 357 342 349 33 37 1 343 327 314 5 36 26 10 11 133 135 137 139 122 108 101 88 65 49 54 49 36 47 57 54 57 58 52 46 43